Welcome to Northern Hawkes Bay. New Zealand.
PWS Header
      nz Flag



Hit Counter


W3C Valid W3C Valid logo


    Wairoa

Select any of the Stations below to visit their websites.










Historic Data from Weather Underground
Select the location of interest below. Wairoa is the default. Please have patience, this Data is slow to load in.
Northern Hawkes Bay Historical Data
Daily Summary for May 22, 2017 Units:  Metric    English   Both
« Previous Day
Next Day »
Daily Weekly Monthly Yearly Custom
  High: Low: Average:
Temperature: 17.7 °C 3.9 °C 8.5 °C
Dew Point: 5.5 °C 1.9 °C 3.7 °C
Humidity: 99% 43% 74%
Wind Speed: 11.1km/h 0.0km/h 4.5km/h
Wind Gust: 18.3km/h - -
Wind- - West
Pressure: 1031.7 hPa 1026.6 hPa -
Precipitation: 0.0 mm    
Historical Graphs
 
 
Tabular Data for May 22, 2017
Time Temperature Dew Point Pressure Wind Wind Speed Wind Gust Humidity Rainfall Rate (Hourly) solar
00:03 6.0 °C 2.1 °C 1029.3 hPa NW 6.1 km/h 9.7 km/h 76% 0.0 mm 0 W/m2
00:08 5.9 °C 2.2 °C 1029.3 hPa NW 5.0 km/h 9.7 km/h 77% 0.0 mm 0 W/m2
00:14 5.8 °C 2.3 °C 1029.3 hPa NW 1.1 km/h 9.7 km/h 78% 0.0 mm 0 W/m2
00:19 5.8 °C 2.3 °C 1029.3 hPa NW 3.5 km/h 6.1 km/h 78% 0.0 mm 0 W/m2
00:24 5.7 °C 2.2 °C 1029.3 hPa NW 2.6 km/h 8.7 km/h 78% 0.0 mm 0 W/m2
00:29 5.6 °C 2.1 °C 1029.7 hPa NNW 7.2 km/h 9.7 km/h 78% 0.0 mm 0 W/m2
00:34 5.6 °C 2.2 °C 1029.7 hPa NNW 3.5 km/h 9.7 km/h 79% 0.0 mm 0 W/m2
00:39 5.7 °C 2.3 °C 1029.7 hPa NNW 3.5 km/h 9.7 km/h 79% 0.0 mm 0 W/m2
00:44 5.8 °C 2.4 °C 1029.3 hPa NNW 2.6 km/h 9.7 km/h 79% 0.0 mm 0 W/m2
00:49 5.8 °C 2.4 °C 1029.3 hPa NNW 5.0 km/h 7.2 km/h 79% 0.0 mm 0 W/m2
00:54 5.7 °C 2.3 °C 1029.3 hPa NNW 3.5 km/h 7.2 km/h 79% 0.0 mm 0 W/m2
00:59 5.7 °C 2.5 °C 1029.3 hPa NNW 1.1 km/h 7.2 km/h 80% 0.0 mm 0 W/m2
01:04 5.6 °C 2.4 °C 1029.3 hPa NNW 6.1 km/h 8.7 km/h 80% 0.0 mm 0 W/m2
01:09 5.6 °C 2.6 °C 1029.7 hPa NNW 3.5 km/h 8.7 km/h 81% 0.0 mm 0 W/m2
01:14 5.7 °C 2.7 °C 1029.3 hPa NNW 6.1 km/h 9.7 km/h 81% 0.0 mm 0 W/m2
01:19 5.9 °C 2.7 °C 1029.3 hPa NNW 3.5 km/h 12.2 km/h 80% 0.0 mm 0 W/m2
01:24 6.0 °C 2.4 °C 1029.3 hPa NNW 5.0 km/h 12.2 km/h 78% 0.0 mm 0 W/m2
01:29 6.0 °C 2.4 °C 1029.3 hPa NW 6.1 km/h 9.7 km/h 78% 0.0 mm 0 W/m2
01:34 6.0 °C 2.4 °C 1029.3 hPa NW 5.0 km/h 8.7 km/h 78% 0.0 mm 0 W/m2
01:39 5.8 °C 2.4 °C 1029.3 hPa NNW 3.5 km/h 9.7 km/h 79% 0.0 mm 0 W/m2
01:44 5.8 °C 2.6 °C 1029.3 hPa NNW 3.5 km/h 9.7 km/h 80% 0.0 mm 0 W/m2
01:49 5.9 °C 2.7 °C 1029.3 hPa NNW 5.0 km/h 9.7 km/h 80% 0.0 mm 0 W/m2
01:54 6.0 °C 2.4 °C 1029.3 hPa NNW 6.1 km/h 11.1 km/h 78% 0.0 mm 0 W/m2
01:59 6.2 °C 2.4 °C 1029.3 hPa NNW 5.0 km/h 11.1 km/h 77% 0.0 mm 0 W/m2
02:04 6.3 °C 2.4 °C 1029.3 hPa NNW 3.5 km/h 11.1 km/h 76% 0.0 mm 0 W/m2
02:09 6.3 °C 2.4 °C 1029.3 hPa NNW 5.0 km/h 9.7 km/h 76% 0.0 mm 0 W/m2
02:14 6.2 °C 2.3 °C 1029.3 hPa NNW 7.2 km/h 11.1 km/h 76% 0.0 mm 0 W/m2
02:19 6.3 °C 2.4 °C 1029.3 hPa NNW 5.0 km/h 11.1 km/h 76% 0.0 mm 0 W/m2
02:24 6.2 °C 2.3 °C 1029.3 hPa NNW 3.5 km/h 8.7 km/h 76% 0.0 mm 0 W/m2
02:29 6.2 °C 2.3 °C 1029.3 hPa NNW 6.1 km/h 8.7 km/h 76% 0.0 mm 0 W/m2
02:34 6.2 °C 2.3 °C 1029.3 hPa NNW 5.0 km/h 9.7 km/h 76% 0.0 mm 0 W/m2
02:39 6.3 °C 2.4 °C 1029.3 hPa NNW 6.1 km/h 9.7 km/h 76% 0.0 mm 0 W/m2
02:44 6.4 °C 2.5 °C 1029.3 hPa NNW 5.0 km/h 9.7 km/h 76% 0.0 mm 0 W/m2
02:49 6.4 °C 2.5 °C 1029.3 hPa NNW 7.2 km/h 9.7 km/h 76% 0.0 mm 0 W/m2
02:54 6.4 °C 2.5 °C 1029.0 hPa NNW 7.2 km/h 11.1 km/h 76% 0.0 mm 0 W/m2
02:59 6.5 °C 2.6 °C 1029.3 hPa NNW 5.0 km/h 11.1 km/h 76% 0.0 mm 0 W/m2
03:04 6.5 °C 2.6 °C 1029.3 hPa NNW 7.2 km/h 9.7 km/h 76% 0.0 mm 0 W/m2
03:09 6.5 °C 2.6 °C 1029.0 hPa NNW 6.1 km/h 11.1 km/h 76% 0.0 mm 0 W/m2
03:14 6.4 °C 2.5 °C 1029.0 hPa NNW 6.1 km/h 11.1 km/h 76% 0.0 mm 0 W/m2
03:19 6.3 °C 2.6 °C 1029.0 hPa NNW 6.1 km/h 11.1 km/h 77% 0.0 mm 0 W/m2
03:24 6.3 °C 2.6 °C 1029.0 hPa NW 7.2 km/h 9.7 km/h 77% 0.0 mm 0 W/m2
03:35 6.3 °C 2.7 °C 1029.0 hPa NW 3.5 km/h 7.2 km/h 78% 0.0 mm 0 W/m2
03:40 6.4 °C 2.8 °C 1029.0 hPa NW 3.5 km/h 9.7 km/h 78% 0.0 mm 0 W/m2
03:45 6.3 °C 2.7 °C 1029.0 hPa NW 2.6 km/h 9.7 km/h 78% 0.0 mm 0 W/m2
03:50 6.2 °C 2.4 °C 1029.0 hPa NNW 3.5 km/h 7.2 km/h 77% 0.0 mm 0 W/m2
03:55 6.0 °C 2.3 °C 1029.0 hPa NNW 5.0 km/h 7.2 km/h 77% 0.0 mm 0 W/m2
04:00 5.9 °C 2.6 °C 1029.0 hPa NNW 3.5 km/h 7.2 km/h 79% 0.0 mm 0 W/m2
04:06 5.7 °C 2.5 °C 1029.0 hPa NNW 3.5 km/h 9.7 km/h 80% 0.0 mm 0 W/m2
04:11 5.6 °C 2.4 °C 1029.0 hPa NNW 7.2 km/h 12.2 km/h 80% 0.0 mm 0 W/m2
04:16 5.6 °C 2.4 °C 1029.0 hPa North 6.1 km/h 12.2 km/h 80% 0.0 mm 0 W/m2
04:21 5.6 °C 2.4 °C 1029.0 hPa NNW 5.0 km/h 12.2 km/h 80% 0.0 mm 0 W/m2
04:26 5.5 °C 2.3 °C 1029.0 hPa NNW 6.1 km/h 8.7 km/h 80% 0.0 mm 0 W/m2
04:31 5.5 °C 2.3 °C 1029.0 hPa NNW 3.5 km/h 9.7 km/h 80% 0.0 mm 0 W/m2
04:36 5.5 °C 2.3 °C 1029.0 hPa NNW 5.0 km/h 9.7 km/h 80% 0.0 mm 0 W/m2
04:41 5.6 °C 2.4 °C 1029.0 hPa NNW 6.1 km/h 12.2 km/h 80% 0.0 mm 0 W/m2
04:46 5.7 °C 2.3 °C 1029.0 hPa NNW 5.0 km/h 12.2 km/h 79% 0.0 mm 0 W/m2
04:51 5.9 °C 2.4 °C 1029.0 hPa NNW 7.2 km/h 12.2 km/h 78% 0.0 mm 0 W/m2
04:56 5.9 °C 2.2 °C 1029.0 hPa NNW 6.1 km/h 12.2 km/h 77% 0.0 mm 0 W/m2
05:01 5.9 °C 2.2 °C 1029.0 hPa NNW 6.1 km/h 11.1 km/h 77% 0.0 mm 0 W/m2
05:05 5.9 °C 2.2 °C 1029.0 hPa NNW 5.0 km/h 11.1 km/h 77% 0.0 mm 0 W/m2
05:10 6.0 °C 2.1 °C 1029.0 hPa NNW 5.0 km/h 9.7 km/h 76% 0.0 mm 0 W/m2
05:15 6.0 °C 1.9 °C 1029.0 hPa NNW 5.0 km/h 9.7 km/h 75% 0.0 mm 0 W/m2
05:20 5.9 °C 2.2 °C 1029.3 hPa North 5.0 km/h 11.1 km/h 77% 0.0 mm 0 W/m2
05:25 5.8 °C 2.1 °C 1029.3 hPa North 3.5 km/h 11.1 km/h 77% 0.0 mm 0 W/m2
05:30 5.7 °C 2.0 °C 1029.3 hPa NNW 6.1 km/h 9.7 km/h 77% 0.0 mm 0 W/m2
05:35 5.7 °C 2.0 °C 1029.3 hPa NNW 3.5 km/h 8.7 km/h 77% 0.0 mm 0 W/m2
05:40 5.7 °C 2.2 °C 1029.3 hPa NW 6.1 km/h 9.7 km/h 78% 0.0 mm 0 W/m2
05:45 5.7 °C 2.2 °C 1029.0 hPa NNW 6.1 km/h 11.1 km/h 78% 0.0 mm 0 W/m2
05:50 5.6 °C 2.1 °C 1029.0 hPa NNW 5.0 km/h 11.1 km/h 78% 0.0 mm 0 W/m2
05:55 5.6 °C 2.1 °C 1029.0 hPa NNW 2.6 km/h 8.7 km/h 78% 0.0 mm 0 W/m2
06:00 5.6 °C 2.1 °C 1029.3 hPa North 3.5 km/h 9.7 km/h 78% 0.0 mm 0 W/m2
06:06 5.7 °C 2.2 °C 1029.3 hPa North 6.1 km/h 11.1 km/h 78% 0.0 mm 0 W/m2
06:11 5.7 °C 2.2 °C 1029.3 hPa North 2.6 km/h 11.1 km/h 78% 0.0 mm 0 W/m2
06:16 5.6 °C 2.1 °C 1029.3 hPa North 6.1 km/h 9.7 km/h 78% 0.0 mm 0 W/m2
06:21 5.6 °C 2.1 °C 1029.3 hPa NNE 6.1 km/h 9.7 km/h 78% 0.0 mm 0 W/m2
06:26 5.6 °C 2.1 °C 1029.3 hPa NNE 3.5 km/h 9.7 km/h 78% 0.0 mm 0 W/m2
06:31 5.7 °C 2.2 °C 1029.7 hPa North 5.0 km/h 9.7 km/h 78% 0.0 mm 0 W/m2
06:36 5.7 °C 2.0 °C 1029.7 hPa North 3.5 km/h 9.7 km/h 77% 0.0 mm 0 W/m2
06:41 5.8 °C 2.1 °C 1029.7 hPa North 5.0 km/h 8.7 km/h 77% 0.0 mm 0 W/m2
06:46 5.8 °C 2.1 °C 1029.7 hPa North 5.0 km/h 9.7 km/h 77% 0.0 mm 0 W/m2
06:51 5.7 °C 2.0 °C 1029.7 hPa North 5.0 km/h 11.1 km/h 77% 0.0 mm 0 W/m2
06:56 5.6 °C 2.1 °C 1030.0 hPa North 8.7 km/h 11.1 km/h 78% 0.0 mm 0 W/m2
07:01 5.6 °C 2.1 °C 1029.7 hPa North 6.1 km/h 12.2 km/h 78% 0.0 mm 0 W/m2
07:06 5.6 °C 2.1 °C 1030.0 hPa North 5.0 km/h 12.2 km/h 78% 0.0 mm 0 W/m2
07:11 5.5 °C 2.0 °C 1030.0 hPa North 8.7 km/h 11.1 km/h 78% 0.0 mm 0 W/m2
07:16 5.6 °C 2.1 °C 1030.0 hPa North 5.0 km/h 12.2 km/h 78% 0.0 mm 2 W/m2
07:21 5.6 °C 2.1 °C 1029.7 hPa North 3.5 km/h 12.2 km/h 78% 0.0 mm 4 W/m2
07:26 5.6 °C 2.1 °C 1030.0 hPa North 2.6 km/h 8.7 km/h 78% 0.0 mm 7 W/m2
07:31 5.6 °C 2.1 °C 1030.0 hPa NNW 2.6 km/h 6.1 km/h 78% 0.0 mm 9 W/m2
07:36 5.6 °C 2.2 °C 1030.0 hPa NNW 2.6 km/h 5.0 km/h 79% 0.0 mm 12 W/m2
07:41 5.7 °C 2.3 °C 1030.0 hPa NNW 2.6 km/h 8.7 km/h 79% 0.0 mm 14 W/m2
07:46 5.8 °C 2.3 °C 1030.0 hPa NNW 3.5 km/h 8.7 km/h 78% 0.0 mm 18 W/m2
07:51 5.9 °C 2.4 °C 1030.4 hPa NNW 5.0 km/h 8.7 km/h 78% 0.0 mm 23 W/m2
07:56 6.0 °C 2.1 °C 1030.4 hPa NNW 2.6 km/h 8.7 km/h 76% 0.0 mm 26 W/m2
08:01 6.0 °C 2.1 °C 1030.7 hPa NNW 3.5 km/h 7.2 km/h 76% 0.0 mm 31 W/m2
08:06 6.1 °C 2.2 °C 1030.7 hPa North 6.1 km/h 11.1 km/h 76% 0.0 mm 36 W/m2
08:11 6.2 °C 2.3 °C 1030.4 hPa NNW 6.1 km/h 12.2 km/h 76% 0.0 mm 41 W/m2
08:16 6.3 °C 2.2 °C 1030.7 hPa NNW 6.1 km/h 12.2 km/h 75% 0.0 mm 45 W/m2
08:21 6.5 °C 2.4 °C 1030.7 hPa NNW 3.5 km/h 11.1 km/h 75% 0.0 mm 52 W/m2
08:26 6.6 °C 2.5 °C 1030.7 hPa NNW 2.6 km/h 11.1 km/h 75% 0.0 mm 56 W/m2
08:31 6.7 °C 2.8 °C 1030.7 hPa NNW 3.5 km/h 11.1 km/h 76% 0.0 mm 64 W/m2
08:36 6.8 °C 2.9 °C 1030.7 hPa NNW 7.2 km/h 9.7 km/h 76% 0.0 mm 72 W/m2
08:41 6.9 °C 2.9 °C 1030.4 hPa NNW 7.2 km/h 9.7 km/h 76% 0.0 mm 85 W/m2
08:46 7.1 °C 2.8 °C 1030.7 hPa NNW 3.5 km/h 11.1 km/h 74% 0.0 mm 94 W/m2
08:51 7.5 °C 3.2 °C 1030.7 hPa North 6.1 km/h 11.1 km/h 74% 0.0 mm 101 W/m2
08:56 7.8 °C 3.3 °C 1030.7 hPa North 2.6 km/h 8.7 km/h 73% 0.0 mm 106 W/m2
09:01 8.1 °C 3.3 °C 1030.7 hPa North 6.1 km/h 8.7 km/h 72% 0.0 mm 101 W/m2
09:06 8.1 °C 3.2 °C 1030.7 hPa North 7.2 km/h 11.1 km/h 71% 0.0 mm 109 W/m2
09:11 8.3 °C 3.2 °C 1030.7 hPa North 5.0 km/h 11.1 km/h 70% 0.0 mm 127 W/m2
09:16 8.6 °C 3.4 °C 1031.0 hPa North 2.6 km/h 11.1 km/h 70% 0.0 mm 133 W/m2
09:21 8.8 °C 3.4 °C 1031.0 hPa North 7.2 km/h 11.1 km/h 69% 0.0 mm 167 W/m2
09:26 9.1 °C 3.3 °C 1031.0 hPa North 5.0 km/h 11.1 km/h 67% 0.0 mm 148 W/m2
09:31 9.4 °C 3.6 °C 1031.4 hPa North 2.6 km/h 11.1 km/h 67% 0.0 mm 156 W/m2
09:36 10.2 °C 3.9 °C 1031.0 hPa North 3.5 km/h 8.7 km/h 65% 0.0 mm 135 W/m2
09:41 10.5 °C 4.0 °C 1031.0 hPa North 2.6 km/h 7.2 km/h 64% 0.0 mm 122 W/m2
09:46 10.8 °C 4.1 °C 1031.4 hPa North 3.5 km/h 9.7 km/h 63% 0.0 mm 123 W/m2
09:51 11.2 °C 3.9 °C 1031.0 hPa NNW 5.0 km/h 11.1 km/h 61% 0.0 mm 79 W/m2
09:56 11.4 °C 4.2 °C 1031.0 hPa NNW 7.2 km/h 11.1 km/h 61% 0.0 mm 60 W/m2
10:15 12.3 °C 4.5 °C 1031.0 hPa NW 7.2 km/h 11.1 km/h 59% 0.0 mm 56 W/m2
10:20 12.2 °C 4.2 °C 1031.0 hPa NW 5.0 km/h 12.2 km/h 58% 0.0 mm 55 W/m2
10:25 12.3 °C 4.3 °C 1031.0 hPa NNW 6.1 km/h 12.2 km/h 58% 0.0 mm 55 W/m2
10:30 12.4 °C 4.1 °C 1031.0 hPa North 6.1 km/h 12.2 km/h 57% 0.0 mm 55 W/m2
10:35 12.5 °C 3.9 °C 1031.4 hPa NNW 8.7 km/h 12.2 km/h 56% 0.0 mm 57 W/m2
10:40 12.9 °C 4.6 °C 1031.4 hPa NNW 6.1 km/h 12.2 km/h 57% 0.0 mm 58 W/m2
10:45 12.6 °C 3.8 °C 1031.4 hPa NW 2.6 km/h 12.2 km/h 55% 0.0 mm 62 W/m2
10:50 12.8 °C 4.2 °C 1031.4 hPa NW 7.2 km/h 12.2 km/h 56% 0.0 mm 87 W/m2
10:55 12.7 °C 4.2 °C 1031.7 hPa NNW 5.0 km/h 12.2 km/h 56% 0.0 mm 130 W/m2
11:00 13.0 °C 4.4 °C 1031.7 hPa NNW 5.0 km/h 11.1 km/h 56% 0.0 mm 172 W/m2
11:05 12.9 °C 4.8 °C 1031.7 hPa NNW 5.0 km/h 11.1 km/h 58% 0.0 mm 188 W/m2
11:10 12.9 °C 4.6 °C 1031.7 hPa NNW 7.2 km/h 12.2 km/h 57% 0.0 mm 190 W/m2
11:15 12.9 °C 4.6 °C 1031.7 hPa NNW 6.1 km/h 12.2 km/h 57% 0.0 mm 166 W/m2
11:20 13.0 °C 4.4 °C 1031.7 hPa NNW 8.7 km/h 11.1 km/h 56% 0.0 mm 164 W/m2
11:25 13.0 °C 4.7 °C 1031.7 hPa NNW 5.0 km/h 11.1 km/h 57% 0.0 mm 171 W/m2
11:31 13.4 °C 4.8 °C 1031.7 hPa NNW 5.0 km/h 11.1 km/h 56% 0.0 mm 173 W/m2
11:36 13.6 °C 5.0 °C 1031.4 hPa North 3.5 km/h 11.1 km/h 56% 0.0 mm 162 W/m2
11:41 13.9 °C 5.0 °C 1031.7 hPa North 2.6 km/h 9.7 km/h 55% 0.0 mm 153 W/m2
11:46 14.3 °C 4.8 °C 1031.4 hPa NNW 1.1 km/h 9.7 km/h 53% 0.0 mm 141 W/m2
11:51 15.1 °C 4.4 °C 1031.4 hPa NW 2.6 km/h 6.1 km/h 49% 0.0 mm 132 W/m2
11:56 15.2 °C 3.9 °C 1031.4 hPa ENE 11.1 km/h 14.8 km/h 47% 0.0 mm 114 W/m2
12:01 14.7 °C 4.1 °C 1031.0 hPa SSW 3.5 km/h 14.8 km/h 49% 0.0 mm 105 W/m2
12:06 14.8 °C 4.5 °C 1031.0 hPa WSW 2.6 km/h 14.8 km/h 50% 0.0 mm 87 W/m2
12:11 15.4 °C 4.2 °C 1031.0 hPa WSW 3.5 km/h 7.2 km/h 47% 0.0 mm 81 W/m2
12:16 16.2 °C 4.3 °C 1031.0 hPa SSW 6.1 km/h 8.7 km/h 45% 0.0 mm 75 W/m2
12:21 15.6 °C 4.0 °C 1030.7 hPa SW 7.2 km/h 11.1 km/h 46% 0.0 mm 73 W/m2
12:26 14.8 °C 4.2 °C 1030.7 hPa SW 9.7 km/h 13.4 km/h 49% 0.0 mm 77 W/m2
12:31 14.5 °C 4.5 °C 1030.4 hPa SW 8.7 km/h 14.8 km/h 51% 0.0 mm 76 W/m2
12:36 14.4 °C 4.4 °C 1030.4 hPa SW 8.7 km/h 14.8 km/h 51% 0.0 mm 75 W/m2
12:41 14.3 °C 4.3 °C 1030.4 hPa SW 9.7 km/h 13.4 km/h 51% 0.0 mm 70 W/m2
12:46 13.9 °C 4.5 °C 1030.4 hPa SW 7.2 km/h 13.4 km/h 53% 0.0 mm 83 W/m2
12:51 13.8 °C 4.7 °C 1030.4 hPa SW 7.2 km/h 13.4 km/h 54% 0.0 mm 95 W/m2
12:56 13.9 °C 5.0 °C 1030.0 hPa SW 7.2 km/h 15.8 km/h 55% 0.0 mm 88 W/m2
13:01 14.2 °C 4.5 °C 1030.0 hPa SSW 3.5 km/h 15.8 km/h 52% 0.0 mm 74 W/m2
13:06 14.6 °C 4.8 °C 1030.0 hPa SW 2.6 km/h 13.4 km/h 52% 0.0 mm 67 W/m2
13:11 15.0 °C 4.4 °C 1030.0 hPa SW 3.5 km/h 13.4 km/h 49% 0.0 mm 65 W/m2
13:16 14.8 °C 4.5 °C 1030.0 hPa SW 6.1 km/h 12.2 km/h 50% 0.0 mm 63 W/m2
13:21 14.7 °C 4.9 °C 1029.7 hPa SSW 5.0 km/h 12.2 km/h 52% 0.0 mm 63 W/m2
13:26 14.8 °C 4.8 °C 1029.7 hPa South 7.2 km/h 12.2 km/h 51% 0.0 mm 63 W/m2
13:31 14.7 °C 4.7 °C 1029.7 hPa South 7.2 km/h 12.2 km/h 51% 0.0 mm 63 W/m2
13:36 14.9 °C 4.8 °C 1029.7 hPa South 7.2 km/h 12.2 km/h 51% 0.0 mm 63 W/m2
13:41 15.6 °C 4.9 °C 1029.3 hPa South 1.1 km/h 9.7 km/h 49% 0.0 mm 64 W/m2
13:46 16.4 °C 4.4 °C 1029.3 hPa SE 2.6 km/h 8.7 km/h 45% 0.0 mm 66 W/m2
13:51 16.1 °C 4.2 °C 1029.0 hPa SE 5.0 km/h 8.7 km/h 45% 0.0 mm 69 W/m2
13:56 15.5 °C 4.2 °C 1029.3 hPa South 3.5 km/h 12.2 km/h 47% 0.0 mm 72 W/m2
14:01 15.6 °C 4.6 °C 1029.3 hPa South 3.5 km/h 12.2 km/h 48% 0.0 mm 75 W/m2
14:06 15.4 °C 4.7 °C 1029.0 hPa South 3.5 km/h 9.7 km/h 49% 0.0 mm 78 W/m2
14:11 15.4 °C 4.7 °C 1029.0 hPa South 5.0 km/h 11.1 km/h 49% 0.0 mm 85 W/m2
14:16 15.3 °C 4.7 °C 1029.0 hPa South 2.6 km/h 11.1 km/h 49% 0.0 mm 120 W/m2
14:21 15.5 °C 4.8 °C 1029.0 hPa South 6.1 km/h 9.7 km/h 49% 0.0 mm 194 W/m2
14:26 15.4 °C 5.1 °C 1029.0 hPa South 5.0 km/h 8.7 km/h 50% 0.0 mm 226 W/m2
14:31 15.5 °C 5.1 °C 1028.7 hPa South 3.5 km/h 8.7 km/h 50% 0.0 mm 230 W/m2
14:36 15.6 °C 4.9 °C 1028.7 hPa South 6.1 km/h 9.7 km/h 49% 0.0 mm 228 W/m2
14:41 15.4 °C 4.7 °C 1028.7 hPa South 6.1 km/h 9.7 km/h 49% 0.0 mm 222 W/m2
14:46 15.4 °C 5.1 °C 1029.0 hPa South 5.0 km/h 9.7 km/h 50% 0.0 mm 217 W/m2
14:51 15.6 °C 4.9 °C 1028.7 hPa South 2.6 km/h 9.7 km/h 49% 0.0 mm 210 W/m2
14:56 15.3 °C 4.3 °C 1028.7 hPa South 5.0 km/h 9.7 km/h 48% 0.0 mm 206 W/m2
15:01 15.6 °C 4.9 °C 1028.7 hPa South 6.1 km/h 9.7 km/h 49% 0.0 mm 201 W/m2
15:06 15.9 °C 5.5 °C 1028.7 hPa South 5.0 km/h 8.7 km/h 50% 0.0 mm 195 W/m2
15:11 16.6 °C 4.6 °C 1028.7 hPa SSE 2.6 km/h 8.7 km/h 45% 0.0 mm 190 W/m2
15:16 17.3 °C 5.3 °C 1028.7 hPa SSE 1.1 km/h 6.1 km/h 45% 0.0 mm 183 W/m2
15:21 17.7 °C 4.9 °C 1029.0 hPa SSE 2.6 km/h 6.1 km/h 43% 0.0 mm 175 W/m2
15:26 17.1 °C 4.4 °C 1028.7 hPa South 2.6 km/h 7.2 km/h 43% 0.0 mm 164 W/m2
15:31 17.1 °C 4.8 °C 1028.7 hPa SSE 2.6 km/h 7.2 km/h 44% 0.0 mm 153 W/m2
15:36 17.0 °C 4.7 °C 1028.7 hPa SE 2.6 km/h 7.2 km/h 44% 0.0 mm 141 W/m2
15:41 16.8 °C 4.8 °C 1028.7 hPa SSE 1.1 km/h 7.2 km/h 45% 0.0 mm 127 W/m2
15:46 16.9 °C 4.9 °C 1028.7 hPa SSE 2.6 km/h 6.1 km/h 45% 0.0 mm 112 W/m2
15:51 16.9 °C 5.2 °C 1028.7 hPa SSE 1.1 km/h 6.1 km/h 46% 0.0 mm 95 W/m2
15:56 16.6 °C 4.6 °C 1028.7 hPa SE 5.0 km/h 8.7 km/h 45% 0.0 mm 81 W/m2
16:01 15.9 °C 4.9 °C 1028.7 hPa ESE 1.1 km/h 8.7 km/h 48% 0.0 mm 68 W/m2
16:06 16.0 °C 5.0 °C 1028.3 hPa ESE 1.1 km/h 8.7 km/h 48% 0.0 mm 58 W/m2
16:11 16.1 °C 5.1 °C 1028.3 hPa Calm   5.0 km/h 48% 0.0 mm 49 W/m2
16:16 16.1 °C 4.8 °C 1028.7 hPa ESE 2.6 km/h 5.0 km/h 47% 0.0 mm 42 W/m2
16:21 15.4 °C 5.1 °C 1028.7 hPa ESE 3.5 km/h 5.0 km/h 50% 0.0 mm 36 W/m2
16:26 14.8 °C 5.1 °C 1028.3 hPa ESE 2.6 km/h 5.0 km/h 52% 0.0 mm 31 W/m2
16:31 14.5 °C 5.3 °C 1028.3 hPa ESE 1.1 km/h 5.0 km/h 54% 0.0 mm 27 W/m2
16:36 14.7 °C 5.5 °C 1028.3 hPa ESE 1.1 km/h 5.0 km/h 54% 0.0 mm 23 W/m2
16:41 13.9 °C 5.0 °C 1028.3 hPa ESE 1.1 km/h 5.0 km/h 55% 0.0 mm 16 W/m2
16:46 13.0 °C 4.7 °C 1028.0 hPa Calm   3.5 km/h 57% 0.0 mm 13 W/m2
16:51 12.1 °C 4.8 °C 1028.0 hPa Calm   2.6 km/h 61% 0.0 mm 9 W/m2
16:56 11.5 °C 4.7 °C 1028.0 hPa Calm   3.5 km/h 63% 0.0 mm 5 W/m2
17:01 11.1 °C 4.6 °C 1028.0 hPa ESE 1.1 km/h 3.5 km/h 64% 0.0 mm 3 W/m2
17:06 10.7 °C 4.6 °C 1028.0 hPa Calm   2.6 km/h 66% 0.0 mm 1 W/m2
17:11 10.4 °C 4.8 °C 1028.0 hPa Calm   2.6 km/h 68% 0.0 mm 0 W/m2
17:16 10.1 °C 4.7 °C 1028.0 hPa North 2.6 km/h 3.5 km/h 69% 0.0 mm 0 W/m2
17:21 9.5 °C 4.7 °C 1028.0 hPa NW 1.1 km/h 3.5 km/h 72% 0.0 mm 0 W/m2
17:26 9.2 °C 4.8 °C 1028.0 hPa NW 1.1 km/h 3.5 km/h 74% 0.0 mm 0 W/m2
17:31 8.7 °C 4.5 °C 1028.3 hPa Calm   2.6 km/h 75% 0.0 mm 0 W/m2
17:36 8.5 °C 4.5 °C 1028.3 hPa Calm   2.6 km/h 76% 0.0 mm 0 W/m2
17:41 8.3 °C 4.7 °C 1028.0 hPa Calm   5.0 km/h 78% 0.0 mm 0 W/m2
17:46 8.0 °C 4.4 °C 1028.0 hPa Calm   5.0 km/h 78% 0.0 mm 0 W/m2
17:51 7.8 °C 4.7 °C 1028.3 hPa Calm   2.6 km/h 81% 0.0 mm 0 W/m2
17:56 7.6 °C 4.6 °C 1028.3 hPa Calm   2.6 km/h 81% 0.0 mm 0 W/m2
18:01 7.3 °C 4.3 °C 1028.0 hPa NNE 1.1 km/h 2.6 km/h 81% 0.0 mm 0 W/m2
18:06 7.3 °C 4.4 °C 1028.3 hPa Calm   2.6 km/h 82% 0.0 mm 0 W/m2
18:11 7.3 °C 4.6 °C 1028.3 hPa Calm   3.5 km/h 83% 0.0 mm 0 W/m2
18:16 7.1 °C 4.6 °C 1028.3 hPa Calm   3.5 km/h 84% 0.0 mm 0 W/m2
18:21 6.9 °C 4.6 °C 1028.3 hPa North 1.1 km/h 2.6 km/h 85% 0.0 mm 0 W/m2
18:26 6.7 °C 4.3 °C 1028.3 hPa North 1.1 km/h 2.6 km/h 85% 0.0 mm 0 W/m2
18:31 6.6 °C 4.4 °C 1028.0 hPa North 2.6 km/h 3.5 km/h 86% 0.0 mm 0 W/m2
18:36 6.6 °C 4.6 °C 1028.3 hPa North 2.6 km/h 5.0 km/h 87% 0.0 mm 0 W/m2
18:41 6.5 °C 4.5 °C 1028.3 hPa NNW 1.1 km/h 5.0 km/h 87% 0.0 mm 0 W/m2
18:46 6.3 °C 4.3 °C 1028.3 hPa NNW 1.1 km/h 3.5 km/h 87% 0.0 mm 0 W/m2
18:51 6.1 °C 4.1 °C 1028.7 hPa NNW 1.1 km/h 3.5 km/h 87% 0.0 mm 0 W/m2
18:56 6.0 °C 4.2 °C 1028.3 hPa North 1.1 km/h 3.5 km/h 88% 0.0 mm 0 W/m2
19:02 5.9 °C 4.4 °C 1028.3 hPa NNW 2.6 km/h 5.0 km/h 90% 0.0 mm 0 W/m2
19:07 5.7 °C 4.2 °C 1028.3 hPa NW 3.5 km/h 5.0 km/h 90% 0.0 mm 0 W/m2
19:12 5.7 °C 4.3 °C 1028.7 hPa NNW 2.6 km/h 5.0 km/h 91% 0.0 mm 0 W/m2
19:17 5.6 °C 4.4 °C 1028.3 hPa North 3.5 km/h 6.1 km/h 92% 0.0 mm 0 W/m2
19:22 5.5 °C 4.4 °C 1028.3 hPa NNW 3.5 km/h 6.1 km/h 93% 0.0 mm 0 W/m2
19:27 5.5 °C 4.4 °C 1028.3 hPa NNW 2.6 km/h 6.1 km/h 93% 0.0 mm 0 W/m2
19:32 5.5 °C 4.4 °C 1028.3 hPa North 2.6 km/h 5.0 km/h 93% 0.0 mm 0 W/m2
19:37 5.4 °C 4.5 °C 1028.3 hPa North 2.6 km/h 5.0 km/h 94% 0.0 mm 0 W/m2
19:42 5.4 °C 4.5 °C 1028.3 hPa NNW 3.5 km/h 5.0 km/h 94% 0.0 mm 0 W/m2
19:47 5.4 °C 4.7 °C 1028.3 hPa NNW 5.0 km/h 7.2 km/h 95% 0.0 mm 0 W/m2
19:52 5.4 °C 4.7 °C 1028.3 hPa NNW 2.6 km/h 7.2 km/h 95% 0.0 mm 0 W/m2
19:57 5.3 °C 4.7 °C 1028.3 hPa NNW 3.5 km/h 6.1 km/h 96% 0.0 mm 0 W/m2
20:02 5.3 °C 4.7 °C 1028.3 hPa NNW 3.5 km/h 6.1 km/h 96% 0.0 mm 0 W/m2
20:07 5.2 °C 4.6 °C 1028.3 hPa NNW 2.6 km/h 6.1 km/h 96% 0.0 mm 0 W/m2
20:12 5.1 °C 4.5 °C 1028.3 hPa NNW 2.6 km/h 6.1 km/h 96% 0.0 mm 0 W/m2
20:17 5.1 °C 4.5 °C 1028.3 hPa North 5.0 km/h 6.1 km/h 96% 0.0 mm 0 W/m2
20:22 5.0 °C 4.4 °C 1028.0 hPa North 2.6 km/h 6.1 km/h 96% 0.0 mm 0 W/m2
20:27 5.0 °C 4.4 °C 1028.0 hPa NNW 2.6 km/h 7.2 km/h 96% 0.0 mm 0 W/m2
20:32 5.0 °C 4.6 °C 1028.0 hPa NNW 3.5 km/h 7.2 km/h 97% 0.0 mm 0 W/m2
20:37 4.8 °C 4.5 °C 1028.0 hPa NNW 2.6 km/h 6.1 km/h 98% 0.0 mm 0 W/m2
20:42 4.8 °C 4.5 °C 1028.0 hPa North 2.6 km/h 5.0 km/h 98% 0.0 mm 0 W/m2
20:47 4.7 °C 4.4 °C 1028.0 hPa NNW 5.0 km/h 7.2 km/h 98% 0.0 mm 0 W/m2
20:52 4.8 °C 4.5 °C 1028.0 hPa NNW 5.0 km/h 7.2 km/h 98% 0.0 mm 0 W/m2
20:57 4.1 °C 3.8 °C 1028.0 hPa NNW 3.5 km/h 7.2 km/h 98% 0.0 mm 0 W/m2
21:02 4.9 °C 4.8 °C 1027.7 hPa NNW 5.0 km/h 7.2 km/h 99% 0.0 mm 0 W/m2
21:07 4.9 °C 4.8 °C 1028.0 hPa NNW 6.1 km/h 8.7 km/h 99% 0.0 mm 0 W/m2
21:08 5.0 °C 4.7 °C 1028.0 hPa NNW 5.0 km/h 8.7 km/h 98% 0.0 mm 0 W/m2
21:13 5.1 °C 4.8 °C 1027.7 hPa NNW 7.2 km/h 9.7 km/h 98% 0.0 mm 0 W/m2
21:18 5.0 °C 4.7 °C 1027.7 hPa NNW 7.2 km/h 11.1 km/h 98% 0.0 mm 0 W/m2
21:23 5.0 °C 4.8 °C 1027.7 hPa NNW 6.1 km/h 11.1 km/h 99% 0.0 mm 0 W/m2
21:28 4.9 °C 4.8 °C 1027.7 hPa North 7.2 km/h 11.1 km/h 99% 0.0 mm 0 W/m2
21:33 4.7 °C 4.6 °C 1027.7 hPa NNW 7.2 km/h 11.1 km/h 99% 0.0 mm 0 W/m2
21:38 4.9 °C 4.8 °C 1027.7 hPa NNW 6.1 km/h 12.2 km/h 99% 0.0 mm 0 W/m2
21:43 4.7 °C 4.6 °C 1027.7 hPa NW 5.0 km/h 12.2 km/h 99% 0.0 mm 0 W/m2
21:48 4.7 °C 4.6 °C 1027.7 hPa NNW 9.7 km/h 12.2 km/h 99% 0.0 mm 0 W/m2
21:53 4.3 °C 4.2 °C 1027.7 hPa NNW 5.0 km/h 13.4 km/h 99% 0.0 mm 0 W/m2
21:58 4.7 °C 4.6 °C 1027.7 hPa NNW 3.5 km/h 13.4 km/h 99% 0.0 mm 0 W/m2
22:03 4.4 °C 4.3 °C 1027.7 hPa NW 5.0 km/h 7.2 km/h 99% 0.0 mm 0 W/m2
22:08 4.4 °C 4.3 °C 1027.7 hPa NNW 5.0 km/h 7.2 km/h 99% 0.0 mm 0 W/m2
22:13 4.5 °C 4.3 °C 1027.7 hPa NNW 5.0 km/h 7.2 km/h 99% 0.0 mm 0 W/m2
22:18 4.4 °C 4.3 °C 1027.7 hPa NNW 3.5 km/h 8.7 km/h 99% 0.0 mm 0 W/m2
22:23 4.3 °C 4.2 °C 1027.7 hPa North 5.0 km/h 9.7 km/h 99% 0.0 mm 0 W/m2
22:28 4.3 °C 4.2 °C 1027.3 hPa North 6.1 km/h 9.7 km/h 99% 0.0 mm 0 W/m2
22:33 4.3 °C 4.2 °C 1027.3 hPa NNW 6.1 km/h 9.7 km/h 99% 0.0 mm 0 W/m2
22:38 4.5 °C 4.3 °C 1027.3 hPa NNW 9.7 km/h 14.8 km/h 99% 0.0 mm 0 W/m2
22:43 4.6 °C 4.4 °C 1027.3 hPa NNW 8.7 km/h 14.8 km/h 99% 0.0 mm 0 W/m2
22:48 4.6 °C 4.4 °C 1027.3 hPa NNW 6.1 km/h 13.4 km/h 99% 0.0 mm 0 W/m2
22:53 4.6 °C 4.4 °C 1027.0 hPa NNW 7.2 km/h 11.1 km/h 99% 0.0 mm 0 W/m2
22:58 4.6 °C 4.4 °C 1027.0 hPa NNW 7.2 km/h 11.1 km/h 99% 0.0 mm 0 W/m2
23:03 4.6 °C 4.4 °C 1027.0 hPa NNW 11.1 km/h 15.8 km/h 99% 0.0 mm 0 W/m2
23:08 4.6 °C 4.4 °C 1027.0 hPa NNW 7.2 km/h 15.8 km/h 99% 0.0 mm 0 W/m2
23:13 4.4 °C 4.3 °C 1027.0 hPa NNW 11.1 km/h 17.2 km/h 99% 0.0 mm 0 W/m2
23:18 4.3 °C 4.0 °C 1027.0 hPa NNW 8.7 km/h 18.3 km/h 98% 0.0 mm 0 W/m2
23:23 4.2 °C 3.9 °C 1027.0 hPa NNW 8.7 km/h 18.3 km/h 98% 0.0 mm 0 W/m2
23:28 4.0 °C 3.7 °C 1027.0 hPa NNW 8.7 km/h 15.8 km/h 98% 0.0 mm 0 W/m2
23:33 4.0 °C 3.7 °C 1026.6 hPa NNW 7.2 km/h 13.4 km/h 98% 0.0 mm 0 W/m2
23:38 4.0 °C 3.7 °C 1027.0 hPa NNW 8.7 km/h 17.2 km/h 98% 0.0 mm 0 W/m2
23:43 4.0 °C 3.7 °C 1026.6 hPa NNW 7.2 km/h 17.2 km/h 98% 0.0 mm 0 W/m2
23:48 4.0 °C 3.7 °C 1026.6 hPa NNW 7.2 km/h 14.8 km/h 98% 0.0 mm 0 W/m2
23:53 3.9 °C 3.8 °C 1026.6 hPa NNW 6.1 km/h 12.2 km/h 99% 0.0 mm 0 W/m2
23:58 3.9 °C 3.8 °C 1026.6 hPa NNW 8.7 km/h 14.8 km/h 99% 0.0 mm 0 W/m2
Northern Hawkes Bay. New Zealand Historic Data
Compliments of Weather Underground - 2 mb